Theta_e
352 351 351 351 351 352 351 351 352 352 353 353 353 353 354 354 355 355 354 355 356 356 357 358 358 359 358 357 357 357 358 359 358 358 358 359 358 356 356 355 355 355
352 351 351 352 352 352 352 352 352 353 353 354 353 354 355 355 355 355 355 355 356 356 357 357 358 359 358 357 358 358 358 359 358 357 358 359 359 357 356 356 355 355
351 352 352 351 352 352 351 351 352 353 353 353 353 354 354 354 354 355 355 356 356 356 356 357 358 358 357 358 359 358 358 358 358 357 358 359 359 357 356 356 355 354
351 351 351 351 350 351 350 350 352 352 352 352 353 353 353 353 354 355 356 356 356 356 357 357 358 358 358 359 359 359 359 359 359 358 359 359 358 357 356 355 355 355
351 351 351 351 350 350 351 351 351 351 351 351 352 352 353 353 353 353 354 355 356 355 355 356 357 357 358 359 359 359 359 358 358 359 361 361 358 357 356 355 357 357
351 351 351 351 350 350 350 350 350 350 349 350 351 351 352 352 352 351 352 353 354 354 354 355 356 356 357 359 360 360 359 358 358 359 362 362 360 358 357 355 356 357
350 351 351 351 350 350 350 349 348 349 348 348 350 350 351 351 351 351 351 352 353 353 354 354 356 358 357 357 359 361 361 359 359 361 361 360 358 357 356 355 355 356
347 348 349 350 349 349 349 349 348 348 348 348 348 349 350 350 350 351 351 352 352 354 355 356 357 359 357 356 358 360 360 358 358 358 358 358 357 354 353 355 354 353
346 345 346 347 347 347 347 347 347 348 348 349 348 347 348 349 350 350 351 353 354 355 356 357 356 357 355 355 357 359 359 359 356 354 355 356 357 355 353 353 353 352
346 345 345 346 346 345 346 345 345 346 347 348 347 345 346 348 349 350 351 353 354 354 356 356 355 354 353 353 356 358 359 360 357 356 355 355 354 353 351 351 352 353
348 346 345 346 346 344 345 344 344 345 346 347 347 345 344 345 348 349 351 352 353 353 354 355 356 355 354 353 355 357 359 360 359 358 356 354 352 352 352 352 351 352
352 349 347 347 347 346 344 344 344 344 345 347 346 346 345 345 346 348 349 350 351 352 352 355 356 356 356 356 356 357 358 359 360 359 357 357 356 356 356 353 352 354
356 354 352 351 351 351 347 345 346 345 345 346 346 347 346 345 346 346 348 348 349 351 355 357 358 358 359 361 361 360 359 360 360 359 359 360 359 359 359 356 355 357
357 357 357 356 357 357 353 350 349 347 345 347 347 347 347 346 345 345 347 349 349 353 357 359 360 359 358 357 358 360 360 359 360 360 360 361 360 359 359 357 356 355
358 358 358 359 360 360 357 355 354 352 351 350 350 350 349 347 346 346 348 350 352 355 358 358 357 355 351 350 352 355 357 359 360 360 360 360 360 358 355 354 354 353
358 356 356 358 360 361 359 358 357 356 355 355 354 354 353 351 350 350 350 351 354 356 358 356 352 349 348 348 348 349 352 357 359 359 358 358 357 356 354 353 352 352
355 353 355 358 358 359 360 360 358 357 357 357 357 357 356 355 355 354 355 356 356 356 355 352 348 347 347 347 347 348 349 354 358 357 357 356 355 354 353 352 351 350
351 351 353 355 355 356 358 358 357 357 357 357 357 357 356 356 356 356 356 356 355 353 351 348 346 347 347 346 348 348 348 352 356 356 355 355 354 353 351 350 349 348
351 350 351 353 354 355 355 354 355 356 356 356 357 357 356 355 354 353 353 352 352 350 347 345 345 347 347 347 348 347 347 351 354 353 352 352 351 350 348 347 346 344
352 352 352 352 353 354 354 354 355 354 355 355 356 355 355 354 352 351 350 349 349 348 345 343 344 346 347 347 348 347 348 350 350 348 347 346 345 343 342 341 340 339
352 352 352 352 352 352 354 354 353 353 352 353 354 353 351 350 347 346 346 346 346 346 344 342 342 345 345 345 346 346 347 347 346 343 342 339 338 338 336 336 336 336
349 350 350 351 351 351 351 352 352 350 350 351 351 349 347 347 345 343 342 342 344 344 343 342 341 342 343 343 345 345 344 342 340 338 336 334 334 334 334 334 334 334
348 348 348 348 349 349 349 350 350 348 347 348 347 346 344 345 345 342 339 340 341 341 341 342 342 342 343 344 344 343 341 339 336 334 333 332 332 333 332 332 332 332
346 346 346 347 348 348 348 347 346 345 345 346 346 346 343 341 341 339 337 338 339 339 340 341 342 343 343 342 341 339 338 336 335 334 333 332 333 332 332 332 332 332
345 345 345 346 346 346 345 344 343 343 343 343 344 344 341 338 337 336 336 337 338 338 339 340 340 340 339 338 336 335 335 334 334 334 334 333 333 332 332 332 332 332
345 344 344 343 344 344 342 342 343 342 341 340 339 337 334 333 333 333 333 334 335 336 336 336 337 336 334 333 334 334 334 334 334 334 334 334 334 333 332 331 331 331
Wind_Speed
14 14 14 13 12 11 10 11 10 9 8 8 7 7 7 6 6 7 7 7 8 8 7 7 6 6 6 6 6 6 6 6 6 5 5 6 6 7 7 7 7 8
16 15 14 13 12 11 10 10 9 9 8 8 7 6 6 6 7 7 7 7 8 8 7 7 6 6 6 6 5 6 6 6 7 6 6 6 6 7 7 8 8 8
18 16 15 14 13 13 12 11 10 9 9 9 8 7 7 7 7 8 8 8 8 7 7 7 7 7 7 6 6 6 6 7 7 7 7 7 7 8 8 8 8 8
20 18 17 16 14 14 13 12 11 11 10 9 9 8 7 6 7 7 8 8 8 7 7 7 7 7 7 6 6 7 7 7 8 8 8 8 8 8 8 8 8 8
21 20 18 17 15 14 13 12 12 12 11 11 10 9 8 7 7 8 8 8 9 9 8 8 8 8 7 7 8 8 8 8 8 8 8 8 8 9 8 7 7 7
20 20 19 17 16 15 14 13 12 12 12 12 11 9 9 9 9 9 8 9 9 9 9 9 8 8 7 7 8 8 8 8 7 7 8 8 9 9 7 5 6 9
19 19 19 18 17 15 15 14 13 13 12 11 11 10 9 9 10 10 9 9 9 9 9 8 8 7 7 7 8 8 8 9 8 7 7 9 10 9 7 8 9 11
18 18 18 19 18 17 16 15 14 13 13 12 11 10 10 10 10 10 10 10 9 9 9 9 8 8 9 10 9 9 9 8 7 5 6 8 8 7 9 12 13 12
18 18 18 19 19 18 17 16 15 14 13 13 13 12 11 11 11 10 10 9 9 9 8 8 9 10 11 11 10 9 8 8 7 6 8 9 6 5 9 13 14 12
17 18 18 18 19 18 17 16 15 14 13 13 13 12 12 11 11 10 10 9 9 9 9 8 9 11 12 11 11 9 7 7 8 9 9 8 7 9 11 11 12 12
17 17 17 17 18 17 16 16 15 14 14 13 13 13 13 12 11 11 10 10 10 10 10 9 9 10 10 11 11 9 7 7 9 9 9 9 10 12 12 10 12 13
17 16 16 16 16 16 16 15 15 15 14 14 13 13 13 13 12 11 11 11 10 10 9 8 8 8 8 9 9 7 6 8 9 8 8 8 9 11 11 11 12 11
16 15 15 15 15 15 15 15 15 15 15 14 13 13 13 13 13 12 11 10 10 9 8 7 6 5 4 4 5 5 5 6 7 6 6 6 7 9 9 9 8 9
16 14 14 13 13 13 13 13 14 14 14 13 13 13 13 13 13 12 11 10 9 8 6 4 2 2 2 3 3 2 3 4 4 3 3 4 5 6 6 6 7 9
16 15 13 12 11 10 11 12 13 13 12 12 12 12 11 11 11 11 10 9 8 6 5 3 3 4 5 5 4 4 4 3 3 2 2 3 4 5 6 7 7 7
17 17 16 14 12 11 11 11 12 12 11 11 11 11 11 11 10 10 10 9 8 6 4 3 5 8 7 7 7 7 5 4 4 3 2 2 3 5 6 5 5 5
15 15 14 14 14 13 11 11 11 12 12 11 11 11 11 10 9 9 8 6 5 5 3 3 6 8 6 7 7 7 5 3 3 3 1 1 3 3 4 4 3 3
16 16 14 12 13 13 13 13 13 13 13 12 11 11 10 9 9 8 6 4 3 3 3 2 4 5 5 5 5 4 2 1 2 2 2 2 1 1 0 2 1 1
16 18 17 14 13 14 14 14 14 13 13 11 9 9 8 8 9 8 7 5 4 3 4 1 3 3 3 3 3 3 3 4 2 1 3 3 4 4 2 0 1 2
16 17 17 16 16 15 14 14 14 14 13 10 10 9 8 8 8 7 7 5 4 4 4 2 1 1 2 1 1 1 4 7 5 4 5 6 6 5 4 4 4 6
12 13 15 15 14 14 13 14 14 14 13 12 13 12 11 9 7 5 6 5 5 4 4 4 2 2 2 2 2 4 6 7 6 7 8 8 8 8 8 9 10 10
10 11 11 11 11 12 13 13 13 14 14 14 15 14 12 11 9 7 6 7 7 6 5 5 4 4 4 4 5 7 8 10 12 13 14 14 13 12 13 13 13 13
10 10 11 10 10 12 13 11 11 14 16 15 15 14 12 11 11 9 7 8 9 7 8 10 10 9 8 7 7 8 10 13 15 16 17 18 18 17 17 17 16 15
9 9 10 9 10 11 12 11 12 15 15 14 14 13 12 12 13 12 11 12 12 12 14 16 15 12 11 11 11 13 15 16 17 18 19 20 19 18 18 18 16 14
9 10 10 9 9 10 11 11 12 13 13 13 14 15 15 14 13 14 16 17 17 17 18 19 17 14 13 14 16 17 19 19 19 20 20 19 18 17 18 19 18 16
11 12 12 12 11 11 11 12 13 14 15 17 18 17 17 15 13 15 18 18 17 17 17 17 18 18 17 17 18 19 20 21 21 21 20 19 18 17 18 17 17 17
Wind_Direction
197 195 195 198 201 204 204 202 202 202 203 208 206 203 207 210 212 217 217 213 214 221 227 232 236 240 241 239 240 247 254 258 261 263 264 270 274 277 280 280 279 284
198 197 199 200 201 204 206 207 208 206 205 210 213 206 205 210 211 212 215 215 220 224 225 232 238 240 244 242 239 246 252 256 262 263 263 268 272 275 277 279 280 279
200 200 203 205 205 205 205 206 208 211 211 210 213 214 213 214 210 208 214 216 223 227 222 229 238 241 244 242 239 246 249 252 259 264 265 263 267 271 273 276 277 275
203 204 207 209 210 208 207 207 207 210 214 211 212 216 216 215 208 207 211 214 222 227 225 229 238 241 242 237 238 244 247 250 253 256 260 261 263 266 271 275 277 283
205 206 209 211 212 211 210 210 210 209 211 211 213 215 212 213 216 216 212 212 218 223 226 229 231 235 235 230 234 243 248 252 250 245 249 259 265 264 267 268 265 277
206 207 209 211 211 211 212 213 214 213 211 210 212 214 212 212 220 225 222 220 222 224 226 227 227 230 229 223 229 239 249 259 262 256 252 259 265 260 260 271 267 269
207 207 209 211 209 210 213 214 214 214 213 212 213 216 216 216 220 225 226 228 230 232 232 230 227 229 232 232 231 234 244 255 261 262 262 272 281 276 269 270 270 271
208 208 208 211 211 211 212 214 213 212 212 213 215 217 219 221 223 224 224 227 231 235 236 236 235 235 237 236 233 233 242 252 259 259 256 268 286 304 301 286 280 282
210 208 208 210 214 215 215 215 213 211 211 215 219 220 220 220 223 224 222 223 230 236 240 244 250 252 253 249 240 237 244 255 267 266 254 251 252 281 297 288 280 281
211 211 209 210 214 217 218 219 218 215 216 220 223 225 223 219 220 223 223 224 230 238 240 243 247 252 260 263 254 245 243 250 258 252 244 240 240 258 272 269 264 266
211 212 211 212 216 219 219 221 222 221 221 224 227 229 229 224 220 221 225 228 232 239 242 241 240 245 253 258 256 252 243 243 248 238 230 236 254 269 273 261 255 257
210 212 213 215 219 222 222 222 223 224 225 227 228 230 231 229 225 226 229 232 236 242 246 245 244 248 249 249 256 259 248 246 252 247 235 239 253 262 263 258 256 257
206 210 213 216 218 222 224 224 226 227 228 228 229 231 232 230 230 231 232 236 239 240 242 246 252 259 257 253 263 266 253 252 261 259 248 243 242 239 241 251 257 258
198 202 208 212 215 220 224 225 228 232 232 231 230 229 230 231 234 235 233 233 234 231 229 231 239 248 256 270 289 297 285 274 267 265 255 236 227 225 233 244 249 252
188 190 195 201 206 212 220 225 227 231 233 232 231 231 231 234 237 238 236 234 229 223 221 213 222 247 264 281 297 317 321 305 284 276 254 211 207 224 242 252 260 265
183 188 190 192 196 201 210 218 220 222 224 226 229 232 234 235 235 235 238 238 229 219 209 206 235 254 271 287 296 308 317 309 294 285 257 219 236 245 247 259 274 277
191 199 197 192 192 193 196 204 211 214 214 217 222 226 228 230 230 229 231 231 223 208 175 186 242 261 283 300 306 314 321 309 296 300 302 273 273 257 258 278 284 257
197 206 209 202 197 195 193 198 205 207 206 209 215 218 220 223 222 219 213 202 201 182 143 178 266 285 305 315 321 330 1 42 330 325 2 353 336 122 280 293 283 180
197 204 210 210 203 199 197 200 203 202 202 204 203 202 204 209 210 205 195 188 183 152 114 119 285 309 328 331 335 349 52 76 77 128 108 86 83 94 92 110 75 45
199 201 204 205 204 202 199 198 197 197 198 193 182 176 175 183 189 182 175 170 162 142 108 93 12 360 24 21 360 57 102 104 110 119 108 90 79 83 86 84 71 57
206 203 201 200 202 204 202 199 200 200 196 185 175 168 163 166 164 150 145 136 125 124 108 84 59 45 67 88 102 119 121 116 110 104 100 93 85 86 87 84 80 78
217 217 210 199 196 206 209 205 199 191 182 175 171 165 163 169 164 142 129 118 110 110 104 85 63 60 76 92 106 117 114 104 100 100 100 97 92 90 89 87 85 86
216 215 208 197 195 204 203 189 173 169 169 167 165 160 158 163 158 143 125 113 108 106 97 87 80 83 96 107 114 118 109 102 101 101 99 96 92 89 86 84 84 84
195 191 188 187 190 191 184 167 159 164 168 169 169 165 159 153 145 134 120 112 109 103 97 94 92 97 110 116 117 114 109 106 106 104 101 97 93 89 86 84 82 81
172 169 168 170 172 174 174 171 169 174 177 173 169 162 152 142 133 124 116 112 108 103 99 100 103 111 119 120 119 115 110 109 109 105 101 96 91 87 84 82 81 83
159 159 158 161 163 164 168 174 179 183 176 162 151 142 135 127 117 108 101 96 94 93 92 99 110 117 119 114 109 107 109 111 109 106 102 98 94 90 85 81 81 87